SCP
0 0 0 0 0 0 0 0 0 0 0 0 0 0 0 0 0 0 0 2 1 1 1 0 0 0 0 0 0 0 0 0 0 0 0 0 0 0 0 0 0 0 0
0 0 0 0 0 0 0 0 0 0 0 0 0 0 0 0 0 0 0 0 1 1 1 1 0 0 0 0 0 0 0 0 0 0 0 0 0 0 0 0 0 0 0
0 0 0 0 0 0 0 0 0 0 0 0 0 0 0 0 0 0 0 0 1 1 1 1 1 0 0 0 0 0 0 0 0 0 0 0 0 0 0 0 0 0 0
0 0 0 0 0 0 0 0 0 0 0 0 0 0 0 1 0 0 0 0 0 1 1 1 1 0 0 0 0 0 0 0 0 0 0 0 0 0 0 0 0 0 0
0 0 0 0 0 0 0 0 0 0 0 0 0 0 0 0 1 1 0 1 1 0 3 1 1 1 0 0 0 0 0 0 0 0 0 0 0 0 0 0 0 0 0
0 0 0 0 0 0 0 0 0 0 0 0 0 0 0 0 0 0 1 1 1 2 1 4 2 1 0 0 0 0 0 0 0 0 0 0 0 0 0 0 0 0 0
0 0 0 0 0 0 0 0 0 0 0 0 0 0 0 0 0 0 0 1 1 2 1 3 4 2 0 0 0 0 0 0 0 0 0 0 0 0 0 0 0 0 0
-0 -0 0 0 0 0 0 0 0 0 0 0 0 0 0 0 0 0 0 0 1 2 1 2 4 2 1 0 0 0 0 0 0 0 0 0 0 0 0 0 0 0 0
-0 0 0 0 0 0 0 0 0 0 0 0 0 0 0 0 0 0 2 1 1 1 1 1 2 3 2 1 0 0 0 0 0 0 0 0 0 0 0 0 0 0 0
0 0 0 0 0 0 0 0 0 0 0 0 0 0 0 0 0 0 0 2 2 1 2 2 3 3 1 1 0 0 0 0 0 0 0 0 0 0 0 0 0 0 0
-0 0 0 0 0 0 0 0 0 0 0 0 0 0 0 0 0 0 0 0 0 1 1 3 3 2 2 1 1 0 0 0 0 0 0 0 0 0 0 0 0 0 0
0 0 0 0 0 0 0 0 0 0 0 0 0 0 0 0 0 0 0 0 0 0 1 3 3 3 2 2 1 0 0 0 0 0 0 0 0 0 0 0 0 0 0
0 0 0 0 0 0 0 0 0 0 0 0 0 0 0 0 0 0 0 0 0 0 1 2 1 1 3 3 1 0 0 0 0 0 0 0 0 0 0 0 0 0 0
0 0 0 0 0 0 0 0 0 0 0 0 0 0 0 0 0 0 0 0 0 0 0 2 2 2 2 1 1 0 0 0 0 0 0 0 0 0 0 0 0 0 -0
0 0 0 0 0 0 0 0 0 0 0 0 0 0 0 0 0 0 0 0 0 0 0 0 1 1 1 2 0 0 0 0 0 0 0 0 0 0 0 0 0 0 -0
0 0 0 0 0 0 0 0 0 0 0 0 0 0 0 0 0 0 0 0 0 0 0 0 0 0 1 1 0 0 0 0 0 0 0 0 0 0 0 0 0 0 -0
0 0 0 0 0 0 0 0 0 0 0 0 0 0 0 0 0 0 0 0 0 0 0 0 0 0 0 0 0 0 0 0 0 0 0 0 0 0 0 -0 0 0 -0
0 0 0 0 0 0 0 0 0 0 0 0 0 0 0 0 0 0 0 0 0 0 0 0 0 1 0 0 0 0 0 0 0 0 0 0 0 0 0 -0 0 0 0
0 0 0 0 0 0 0 0 0 0 0 0 0 0 0 0 0 0 0 0 0 0 0 0 0 1 1 0 0 0 0 0 0 0 0 0 0 0 0 -0 0 -0 0
0 0 0 0 0 0 0 0 0 0 0 0 0 0 0 0 0 0 0 0 0 0 0 0 0 1 0 0 0 0 0 0 0 0 0 0 0 0 0 0 -0 -0 -0
0 0 0 0 0 0 0 0 0 0 0 0 0 0 0 0 0 0 0 0 0 0 0 0 0 1 0 0 0 0 0 0 0 0 0 0 0 0 0 0 -0 -0 -0
0 0 0 0 0 0 0 0 0 0 0 0 0 0 0 0 0 0 0 0 0 0 0 0 1 0 0 0 0 0 0 0 0 0 0 0 0 0 0 0 -0 -0 -0
0 0 0 0 0 0 0 0 0 0 0 0 0 0 0 0 0 0 0 0 0 0 0 0 0 0 0 0 0 0 0 0 0 0 0 0 0 0 0 0 -0 -0 -0
0 0 0 0 0 0 0 0 0 0 0 0 0 0 0 0 0 0 0 0 0 0 0 0 0 0 0 0 0 0 0 0 0 0 0 0 0 0 0 0 -0 -0 -0
0 0 0 0 0 0 0 0 0 0 0 0 0 0 0 0 0 0 0 0 0 0 0 0 -0 0 0 0 0 0 0 0 0 0 0 0 0 0 0 0 0 -0 -0
0 0 0 0 0 0 0 0 0 0 0 0 0 0 0 0 0 0 0 0 0 0 0 0 0 0 0 0 0 0 0 0 0 0 0 0 0 0 0 0 0 0 0
Wind_Speed_500mb
20 15 20 18 19 21 24 24 28 29 34 34 34 36 36 36 36 36 34 45 44 45 39 26 23 19 14 13 15 18 18 16 14 13 13 12 12 12 11 12 11 8 8
20 14 15 16 18 20 24 26 26 29 34 33 34 35 39 40 40 37 35 44 43 45 40 36 25 23 19 14 13 15 16 15 13 12 11 10 9 9 10 11 9 8 9
20 19 15 18 18 21 27 28 28 29 32 33 37 41 44 43 41 43 41 38 48 47 47 40 34 28 25 19 15 14 14 13 12 11 9 8 7 9 9 9 7 7 6
22 22 17 17 20 28 25 26 27 28 31 33 36 39 42 43 45 45 42 44 41 48 45 44 39 37 32 27 20 15 13 10 9 10 8 6 6 7 7 6 4 6 5
17 24 19 19 29 27 23 25 27 28 31 33 35 39 40 41 48 49 46 52 49 47 46 47 44 41 37 34 28 20 14 9 8 7 5 4 5 6 7 5 5 5 4
21 25 24 28 31 24 23 25 36 30 32 33 36 41 45 46 43 46 50 50 47 55 53 51 51 47 44 42 36 26 20 10 8 6 4 4 3 3 4 3 6 6 3
23 27 24 24 25 24 27 34 32 31 31 29 34 38 42 48 50 49 47 51 54 52 50 53 57 52 52 47 44 34 27 16 9 8 7 6 3 4 2 4 6 6 2
30 27 30 29 28 28 31 32 32 32 31 28 32 35 42 40 44 48 49 52 58 55 58 59 66 52 46 50 54 44 33 24 13 11 10 8 7 6 2 4 6 4 2
32 33 33 33 33 31 26 29 30 31 33 31 31 29 26 27 36 27 48 41 44 52 53 59 53 55 53 54 51 52 42 31 19 12 14 11 10 9 4 5 5 4 7
34 33 36 35 35 31 29 30 29 31 32 35 30 32 41 45 46 42 42 42 40 39 64 57 61 61 57 57 55 52 47 37 24 16 18 15 14 10 7 5 4 7 6
28 28 32 38 40 37 30 35 38 36 34 38 36 36 37 39 43 49 48 56 46 39 42 66 56 58 64 59 65 56 48 38 29 21 20 19 18 13 9 6 7 8 7
27 25 27 41 45 44 38 35 34 35 38 40 39 40 39 40 40 43 50 52 55 55 47 53 62 57 60 61 63 58 47 42 33 23 23 20 19 17 12 10 10 12 12
30 30 44 47 44 44 45 43 39 40 41 41 42 42 40 44 44 47 51 56 56 52 46 41 48 49 66 64 70 60 51 47 38 29 27 23 21 20 15 12 11 17 16
41 44 51 50 49 47 46 43 39 41 41 42 43 45 45 46 45 48 51 51 54 53 54 45 35 48 59 59 69 73 54 52 45 35 29 26 23 22 17 15 13 16 12
43 43 47 51 50 49 46 45 44 46 47 49 47 48 49 48 49 51 52 53 54 54 56 41 39 55 52 64 64 66 58 58 52 37 30 32 25 25 19 17 16 17 15
56 54 50 48 47 46 45 46 48 44 47 51 47 50 54 49 52 54 57 58 58 60 59 56 44 48 48 58 63 63 68 62 54 44 39 34 30 27 22 17 19 18 18
56 52 46 44 46 46 46 50 54 58 57 56 57 60 56 56 56 55 57 59 62 62 62 56 50 50 46 52 71 78 76 61 64 53 44 42 34 29 24 19 20 20 21
54 53 47 47 48 49 50 53 55 57 57 56 59 63 59 53 62 64 63 69 60 58 63 59 54 42 47 49 67 79 68 63 68 64 46 41 35 31 26 22 22 22 21
53 49 48 49 53 58 61 57 60 59 58 61 60 60 65 61 61 59 66 64 61 71 63 58 48 52 49 55 73 76 69 63 71 61 52 42 38 33 28 25 25 24 22
50 50 51 53 61 64 62 62 65 67 70 69 65 61 59 63 66 59 62 72 70 69 63 64 65 50 47 52 64 75 77 77 79 68 60 49 43 37 32 30 27 27 26
50 51 55 64 69 71 65 66 69 70 71 72 76 74 71 69 71 72 61 64 72 62 72 66 59 59 56 57 84 87 83 86 80 73 68 57 51 45 39 36 32 31 28
51 54 63 71 71 68 66 75 74 79 79 83 86 85 88 80 78 81 78 72 87 88 63 62 69 70 66 70 84 78 91 97 81 72 70 62 51 47 42 38 37 34 29
59 70 73 72 75 73 74 73 77 83 87 92 98 98 97 96 90 83 81 80 77 97 102 78 65 60 68 80 87 94 97 87 99 88 76 65 53 37 30 38 35 37 30
61 66 65 66 70 73 79 80 83 82 82 94 89 91 97 100 99 95 89 83 83 76 113 109 93 73 41 85 74 71 97 88 91 91 88 71 54 42 44 50 41 38 33
58 64 65 72 74 80 81 79 77 84 92 89 99 94 93 99 100 95 89 92 89 83 73 113 105 83 64 81 58 88 96 102 80 91 85 61 65 56 39 44 48 40 36
65 62 68 69 74 80 76 80 78 78 84 83 88 99 104 105 101 96 97 93 94 89 72 70 107 97 69 67 79 77 88 103 99 75 87 69 71 61 31 35 51 46 40
Wind_Direction_500mb
273 280 263 275 273 289 291 285 273 262 253 259 270 274 272 269 265 260 261 272 275 281 280 273 270 264 279 306 328 340 351 3 1 1 9 15 2 358 14 25 38 17 25
304 305 294 296 281 285 278 273 274 270 271 271 264 269 266 268 267 265 261 271 269 276 277 269 253 252 257 275 301 322 337 353 356 355 7 19 0 9 26 29 26 12 27
315 312 303 301 299 290 286 289 288 281 279 276 274 277 264 257 261 264 262 256 272 266 274 271 254 242 242 252 270 297 317 339 348 344 3 12 358 12 21 21 5 12 19
323 324 314 301 289 281 299 290 286 282 276 273 273 273 270 264 258 260 259 259 250 260 261 264 255 241 238 238 240 261 290 319 338 332 355 357 352 14 21 39 16 9 357
316 318 317 302 296 302 296 288 285 282 281 275 275 274 274 275 272 261 253 254 253 242 255 256 253 248 236 236 238 241 261 294 307 319 330 326 328 359 32 17 341 340 341
314 316 314 309 310 303 293 281 265 275 276 279 279 274 267 265 268 263 262 263 251 250 238 250 250 244 239 231 234 236 246 262 278 284 274 270 310 346 11 332 323 318 2
317 320 322 313 310 301 285 275 286 289 286 284 287 285 282 276 267 261 259 259 251 246 239 238 247 243 241 230 233 232 237 238 245 254 236 237 248 263 306 321 317 305 10
324 324 318 316 308 298 290 285 283 281 281 279 278 286 288 288 271 256 258 250 254 251 244 236 241 240 238 232 227 226 231 231 222 231 228 226 224 234 226 284 291 282 189
319 320 320 320 317 311 296 286 280 276 280 276 267 268 289 278 312 281 256 252 248 253 251 247 236 239 225 240 232 224 224 222 215 220 220 217 215 217 203 255 263 221 167
312 320 319 319 318 311 292 282 285 277 273 277 275 266 265 272 283 292 280 259 255 253 243 242 241 235 231 228 241 230 221 213 212 217 221 212 207 206 207 236 237 176 141
316 308 309 311 315 314 295 282 279 272 266 268 270 273 271 270 271 269 278 280 279 254 245 240 237 231 232 225 233 239 224 206 213 210 217 210 201 198 203 211 200 158 154
304 301 296 302 306 304 301 293 284 278 274 266 265 263 267 269 271 271 269 269 269 270 265 245 240 235 232 225 225 234 230 207 211 211 218 209 201 196 194 204 197 163 184
301 294 290 298 298 294 293 290 284 277 274 269 264 267 268 267 266 267 270 273 278 273 256 245 235 237 235 228 227 228 238 208 208 209 218 196 203 196 195 206 206 182 198
302 300 299 300 299 296 294 291 284 280 276 276 273 269 266 265 263 263 264 270 273 270 269 244 241 257 244 234 230 227 237 211 206 209 212 204 200 194 198 211 217 214 207
301 296 287 288 290 290 289 285 279 277 276 273 270 269 267 265 263 260 258 259 264 269 265 261 245 259 245 231 226 227 234 219 205 202 204 202 198 196 201 211 219 221 207
302 299 293 290 288 287 286 280 278 274 271 271 268 264 262 264 263 262 261 257 258 264 269 262 264 271 250 232 224 234 232 218 204 198 201 191 199 197 206 206 220 220 210
298 293 287 283 283 282 280 278 278 278 273 264 260 262 263 258 258 260 259 260 256 258 265 264 269 264 263 247 226 210 220 215 204 198 202 196 190 200 205 210 219 220 212
292 290 283 280 279 278 275 273 274 275 270 269 269 270 264 260 257 260 258 255 255 256 257 264 256 252 246 246 227 213 215 213 204 197 203 207 186 201 207 214 220 222 211
288 284 280 278 277 273 276 275 275 275 275 269 267 268 265 265 260 257 251 255 259 252 255 262 254 249 244 237 201 209 213 214 207 204 203 192 190 201 207 214 220 218 204
285 282 280 277 275 274 274 272 272 272 273 270 269 271 266 266 268 263 257 250 253 253 248 252 251 251 236 223 214 197 194 204 198 200 207 192 191 201 204 213 217 211 203
282 281 279 276 275 277 274 271 275 276 274 269 268 272 274 263 259 260 259 258 251 252 249 243 244 238 227 212 196 194 208 196 195 197 199 193 192 200 203 209 212 208 203
281 278 275 280 282 277 273 278 275 274 269 266 265 269 272 270 267 266 263 264 243 238 237 241 237 235 225 217 212 209 198 189 180 193 198 196 191 201 203 210 210 209 202
282 287 291 289 285 280 281 281 276 273 270 270 270 272 271 270 270 263 265 269 261 238 235 233 235 233 219 222 214 203 213 218 204 199 195 191 184 190 192 212 206 209 200
287 291 289 285 282 282 285 284 283 281 274 271 270 268 268 266 266 265 263 261 255 254 230 234 230 230 245 214 220 229 216 207 201 197 193 180 167 180 192 207 209 203 198
290 289 286 285 287 288 289 286 283 279 277 273 274 274 269 268 266 263 255 256 252 244 242 228 228 224 224 217 224 212 198 193 191 191 186 182 168 176 189 198 198 195 193
294 290 287 288 289 290 292 287 286 281 279 278 278 280 276 271 267 257 254 251 243 237 235 224 229 226 222 228 220 227 215 199 202 174 178 179 170 172 169 192 194 189 186
Wind_Speed_850mb
20 15 20 18 19 21 24 24 28 29 34 34 34 36 36 36 36 36 34 45 44 45 39 26 23 19 14 13 15 18 18 16 14 13 13 12 12 12 11 12 11 8 8
20 14 15 16 18 20 24 26 26 29 34 33 34 35 39 40 40 37 35 44 43 45 40 36 25 23 19 14 13 15 16 15 13 12 11 10 9 9 10 11 9 8 9
20 19 15 18 18 21 27 28 28 29 32 33 37 41 44 43 41 43 41 38 48 47 47 40 34 28 25 19 15 14 14 13 12 11 9 8 7 9 9 9 7 7 6
22 22 17 17 20 28 25 26 27 28 31 33 36 39 42 43 45 45 42 44 41 48 45 44 39 37 32 27 20 15 13 10 9 10 8 6 6 7 7 6 4 6 5
17 24 19 19 29 27 23 25 27 28 31 33 35 39 40 41 48 49 46 52 49 47 46 47 44 41 37 34 28 20 14 9 8 7 5 4 5 6 7 5 5 5 4
21 25 24 28 31 24 23 25 36 30 32 33 36 41 45 46 43 46 50 50 47 55 53 51 51 47 44 42 36 26 20 10 8 6 4 4 3 3 4 3 6 6 3
23 27 24 24 25 24 27 34 32 31 31 29 34 38 42 48 50 49 47 51 54 52 50 53 57 52 52 47 44 34 27 16 9 8 7 6 3 4 2 4 6 6 2
30 27 30 29 28 28 31 32 32 32 31 28 32 35 42 40 44 48 49 52 58 55 58 59 66 52 46 50 54 44 33 24 13 11 10 8 7 6 2 4 6 4 2
32 33 33 33 33 31 26 29 30 31 33 31 31 29 26 27 36 27 48 41 44 52 53 59 53 55 53 54 51 52 42 31 19 12 14 11 10 9 4 5 5 4 7
34 33 36 35 35 31 29 30 29 31 32 35 30 32 41 45 46 42 42 42 40 39 64 57 61 61 57 57 55 52 47 37 24 16 18 15 14 10 7 5 4 7 6
28 28 32 38 40 37 30 35 38 36 34 38 36 36 37 39 43 49 48 56 46 39 42 66 56 58 64 59 65 56 48 38 29 21 20 19 18 13 9 6 7 8 7
27 25 27 41 45 44 38 35 34 35 38 40 39 40 39 40 40 43 50 52 55 55 47 53 62 57 60 61 63 58 47 42 33 23 23 20 19 17 12 10 10 12 12
30 30 44 47 44 44 45 43 39 40 41 41 42 42 40 44 44 47 51 56 56 52 46 41 48 49 66 64 70 60 51 47 38 29 27 23 21 20 15 12 11 17 16
41 44 51 50 49 47 46 43 39 41 41 42 43 45 45 46 45 48 51 51 54 53 54 45 35 48 59 59 69 73 54 52 45 35 29 26 23 22 17 15 13 16 12
43 43 47 51 50 49 46 45 44 46 47 49 47 48 49 48 49 51 52 53 54 54 56 41 39 55 52 64 64 66 58 58 52 37 30 32 25 25 19 17 16 17 15
56 54 50 48 47 46 45 46 48 44 47 51 47 50 54 49 52 54 57 58 58 60 59 56 44 48 48 58 63 63 68 62 54 44 39 34 30 27 22 17 19 18 18
56 52 46 44 46 46 46 50 54 58 57 56 57 60 56 56 56 55 57 59 62 62 62 56 50 50 46 52 71 78 76 61 64 53 44 42 34 29 24 19 20 20 21
54 53 47 47 48 49 50 53 55 57 57 56 59 63 59 53 62 64 63 69 60 58 63 59 54 42 47 49 67 79 68 63 68 64 46 41 35 31 26 22 22 22 21
53 49 48 49 53 58 61 57 60 59 58 61 60 60 65 61 61 59 66 64 61 71 63 58 48 52 49 55 73 76 69 63 71 61 52 42 38 33 28 25 25 24 22
50 50 51 53 61 64 62 62 65 67 70 69 65 61 59 63 66 59 62 72 70 69 63 64 65 50 47 52 64 75 77 77 79 68 60 49 43 37 32 30 27 27 26
50 51 55 64 69 71 65 66 69 70 71 72 76 74 71 69 71 72 61 64 72 62 72 66 59 59 56 57 84 87 83 86 80 73 68 57 51 45 39 36 32 31 28
51 54 63 71 71 68 66 75 74 79 79 83 86 85 88 80 78 81 78 72 87 88 63 62 69 70 66 70 84 78 91 97 81 72 70 62 51 47 42 38 37 34 29
59 70 73 72 75 73 74 73 77 83 87 92 98 98 97 96 90 83 81 80 77 97 102 78 65 60 68 80 87 94 97 87 99 88 76 65 53 37 30 38 35 37 30
61 66 65 66 70 73 79 80 83 82 82 94 89 91 97 100 99 95 89 83 83 76 113 109 93 73 41 85 74 71 97 88 91 91 88 71 54 42 44 50 41 38 33
58 64 65 72 74 80 81 79 77 84 92 89 99 94 93 99 100 95 89 92 89 83 73 113 105 83 64 81 58 88 96 102 80 91 85 61 65 56 39 44 48 40 36
65 62 68 69 74 80 76 80 78 78 84 83 88 99 104 105 101 96 97 93 94 89 72 70 107 97 69 67 79 77 88 103 99 75 87 69 71 61 31 35 51 46 40
Wind_Direction_850mb
273 280 263 275 273 289 291 285 273 262 253 259 270 274 272 269 265 260 261 272 275 281 280 273 270 264 279 306 328 340 351 3 1 1 9 15 2 358 14 25 38 17 25
304 305 294 296 281 285 278 273 274 270 271 271 264 269 266 268 267 265 261 271 269 276 277 269 253 252 257 275 301 322 337 353 356 355 7 19 0 9 26 29 26 12 27
315 312 303 301 299 290 286 289 288 281 279 276 274 277 264 257 261 264 262 256 272 266 274 271 254 242 242 252 270 297 317 339 348 344 3 12 358 12 21 21 5 12 19
323 324 314 301 289 281 299 290 286 282 276 273 273 273 270 264 258 260 259 259 250 260 261 264 255 241 238 238 240 261 290 319 338 332 355 357 352 14 21 39 16 9 357
316 318 317 302 296 302 296 288 285 282 281 275 275 274 274 275 272 261 253 254 253 242 255 256 253 248 236 236 238 241 261 294 307 319 330 326 328 359 32 17 341 340 341
314 316 314 309 310 303 293 281 265 275 276 279 279 274 267 265 268 263 262 263 251 250 238 250 250 244 239 231 234 236 246 262 278 284 274 270 310 346 11 332 323 318 2
317 320 322 313 310 301 285 275 286 289 286 284 287 285 282 276 267 261 259 259 251 246 239 238 247 243 241 230 233 232 237 238 245 254 236 237 248 263 306 321 317 305 10
324 324 318 316 308 298 290 285 283 281 281 279 278 286 288 288 271 256 258 250 254 251 244 236 241 240 238 232 227 226 231 231 222 231 228 226 224 234 226 284 291 282 189
319 320 320 320 317 311 296 286 280 276 280 276 267 268 289 278 312 281 256 252 248 253 251 247 236 239 225 240 232 224 224 222 215 220 220 217 215 217 203 255 263 221 167
312 320 319 319 318 311 292 282 285 277 273 277 275 266 265 272 283 292 280 259 255 253 243 242 241 235 231 228 241 230 221 213 212 217 221 212 207 206 207 236 237 176 141
316 308 309 311 315 314 295 282 279 272 266 268 270 273 271 270 271 269 278 280 279 254 245 240 237 231 232 225 233 239 224 206 213 210 217 210 201 198 203 211 200 158 154
304 301 296 302 306 304 301 293 284 278 274 266 265 263 267 269 271 271 269 269 269 270 265 245 240 235 232 225 225 234 230 207 211 211 218 209 201 196 194 204 197 163 184
301 294 290 298 298 294 293 290 284 277 274 269 264 267 268 267 266 267 270 273 278 273 256 245 235 237 235 228 227 228 238 208 208 209 218 196 203 196 195 206 206 182 198
302 300 299 300 299 296 294 291 284 280 276 276 273 269 266 265 263 263 264 270 273 270 269 244 241 257 244 234 230 227 237 211 206 209 212 204 200 194 198 211 217 214 207
301 296 287 288 290 290 289 285 279 277 276 273 270 269 267 265 263 260 258 259 264 269 265 261 245 259 245 231 226 227 234 219 205 202 204 202 198 196 201 211 219 221 207
302 299 293 290 288 287 286 280 278 274 271 271 268 264 262 264 263 262 261 257 258 264 269 262 264 271 250 232 224 234 232 218 204 198 201 191 199 197 206 206 220 220 210
298 293 287 283 283 282 280 278 278 278 273 264 260 262 263 258 258 260 259 260 256 258 265 264 269 264 263 247 226 210 220 215 204 198 202 196 190 200 205 210 219 220 212
292 290 283 280 279 278 275 273 274 275 270 269 269 270 264 260 257 260 258 255 255 256 257 264 256 252 246 246 227 213 215 213 204 197 203 207 186 201 207 214 220 222 211
288 284 280 278 277 273 276 275 275 275 275 269 267 268 265 265 260 257 251 255 259 252 255 262 254 249 244 237 201 209 213 214 207 204 203 192 190 201 207 214 220 218 204
285 282 280 277 275 274 274 272 272 272 273 270 269 271 266 266 268 263 257 250 253 253 248 252 251 251 236 223 214 197 194 204 198 200 207 192 191 201 204 213 217 211 203
282 281 279 276 275 277 274 271 275 276 274 269 268 272 274 263 259 260 259 258 251 252 249 243 244 238 227 212 196 194 208 196 195 197 199 193 192 200 203 209 212 208 203
281 278 275 280 282 277 273 278 275 274 269 266 265 269 272 270 267 266 263 264 243 238 237 241 237 235 225 217 212 209 198 189 180 193 198 196 191 201 203 210 210 209 202
282 287 291 289 285 280 281 281 276 273 270 270 270 272 271 270 270 263 265 269 261 238 235 233 235 233 219 222 214 203 213 218 204 199 195 191 184 190 192 212 206 209 200
287 291 289 285 282 282 285 284 283 281 274 271 270 268 268 266 266 265 263 261 255 254 230 234 230 230 245 214 220 229 216 207 201 197 193 180 167 180 192 207 209 203 198
290 289 286 285 287 288 289 286 283 279 277 273 274 274 269 268 266 263 255 256 252 244 242 228 228 224 224 217 224 212 198 193 191 191 186 182 168 176 189 198 198 195 193
294 290 287 288 289 290 292 287 286 281 279 278 278 280 276 271 267 257 254 251 243 237 235 224 229 226 222 228 220 227 215 199 202 174 178 179 170 172 169 192 194 189 186